Wind_Speed
2 1 0 1 1 1 1 2 2 3 4 4 4 4 4 4 4 4 5 6 6 7 8 8 8 8 9 11 13 14 14 15 16 17 18 19 20 20 19 19 18 16 14 14 15 15 15 14 15 17 18 18 18 20 22 22 22 21 20 21 21 21 21
2 2 1 1 1 1 1 3 3 3 3 4 4 4 5 5 5 5 6 6 6 6 6 6 6 6 6 8 10 11 11 12 13 14 15 17 18 19 20 21 20 19 18 19 19 18 17 17 18 19 18 18 18 19 21 21 21 22 22 22 22 22 22
3 3 2 1 1 1 2 3 4 4 4 3 3 3 3 4 5 6 7 7 7 7 6 6 5 5 5 6 7 8 9 9 9 10 12 13 14 16 17 19 19 20 21 23 23 22 22 22 23 24 21 21 21 19 19 20 21 22 22 23 23 24 24
3 3 4 3 2 2 2 3 5 5 5 4 3 2 2 2 3 5 7 8 8 8 8 7 6 6 6 6 7 7 7 6 6 7 8 9 10 12 13 14 15 17 19 21 22 22 23 24 26 26 25 24 23 22 22 22 22 22 22 22 23 24 24
4 4 4 4 4 3 2 3 5 6 6 6 5 4 3 2 1 3 4 6 7 8 8 8 8 7 7 7 7 7 6 6 6 6 6 7 7 8 9 9 10 11 13 14 16 17 19 20 21 22 23 24 24 24 24 24 24 24 24 23 22 22 22
5 5 4 5 5 4 3 3 4 5 6 6 6 6 5 4 3 1 1 3 5 6 7 7 7 7 7 7 8 8 8 7 6 6 6 6 6 7 7 7 7 7 8 9 10 11 12 13 15 15 16 17 18 18 19 22 23 24 26 25 24 24 23
5 6 6 5 5 4 4 3 3 3 4 5 6 6 6 6 5 4 3 1 1 3 4 5 5 6 6 6 7 8 9 9 9 8 8 8 8 8 8 8 8 8 8 8 9 9 10 10 11 12 12 12 13 13 13 14 16 18 20 22 24 25 26
6 7 7 7 6 5 5 5 4 3 3 4 5 6 6 7 7 6 6 4 3 2 3 3 4 4 5 5 5 6 7 8 9 10 10 10 11 11 11 11 11 11 11 11 12 12 12 12 12 13 13 13 13 13 12 12 13 14 15 16 19 21 23
8 8 8 8 8 7 7 7 6 5 5 4 4 5 6 6 7 7 7 7 6 5 5 5 5 5 6 6 5 5 5 6 7 8 9 10 11 11 12 13 13 13 14 14 14 14 15 15 15 15 16 16 16 16 15 15 15 16 16 16 18 19 21
11 10 10 10 10 10 10 9 8 7 7 7 6 5 6 6 7 7 8 8 8 8 7 7 7 7 8 8 8 7 7 7 7 7 8 8 9 10 10 11 12 12 13 13 13 14 14 15 15 16 16 17 17 17 16 16 16 17 18 18 19 21 22
13 12 12 12 12 13 12 11 11 10 10 10 9 8 8 8 8 8 8 8 9 9 9 9 8 8 9 9 10 10 10 10 9 9 9 9 9 10 10 10 11 11 11 11 12 12 12 13 13 14 14 15 15 15 15 15 15 15 17 18 19 20 21
16 15 15 14 14 14 14 14 14 13 13 13 12 11 11 11 12 11 10 9 9 10 10 10 9 9 9 9 9 10 11 11 11 11 11 10 10 10 11 11 11 11 11 11 12 12 12 12 12 13 13 14 15 15 16 16 16 15 16 17 18 19 20
19 18 17 17 16 16 16 16 16 16 16 16 16 14 13 13 14 15 14 13 11 11 11 11 11 10 10 9 10 10 10 11 11 11 11 12 12 12 12 12 12 12 13 13 13 13 13 14 14 15 15 15 16 16 17 18 18 18 18 18 19 19 20
23 21 21 20 19 18 18 18 18 18 19 19 19 18 17 16 17 17 18 17 15 14 13 13 12 12 12 11 11 11 11 11 12 12 13 13 13 14 14 15 14 14 15 15 16 16 16 16 17 17 18 18 18 19 19 19 20 20 20 20 20 20 21
26 26 25 24 23 22 21 20 20 20 21 21 21 22 22 21 20 20 20 20 18 17 17 16 16 15 14 14 14 13 13 14 13 14 14 14 15 15 16 17 18 18 18 18 19 19 20 20 20 21 21 21 21 21 21 21 21 22 22 22 22 22 22
29 29 28 28 27 26 24 23 23 22 22 23 23 24 25 25 24 24 24 23 22 21 20 19 19 18 17 17 17 16 16 16 16 16 16 16 17 17 17 18 19 20 21 21 22 22 23 23 23 24 24 25 25 25 24 24 24 24 24 23 23 23 24
31 31 31 31 31 29 28 26 26 25 25 25 25 25 27 28 28 28 27 26 25 24 23 22 21 20 20 19 19 19 19 19 18 18 18 18 18 19 19 19 20 21 22 23 24 24 25 26 26 26 27 27 28 29 28 28 27 28 28 27 25 25 25
29 31 33 33 31 30 30 30 29 29 28 28 27 28 29 29 30 30 29 29 28 27 26 25 24 24 23 22 22 22 22 22 21 21 21 21 21 21 21 21 21 22 23 24 24 26 27 27 28 29 29 30 30 31 31 30 30 30 31 31 30 29 28
24 27 30 29 28 29 31 34 33 32 32 31 31 31 31 31 31 32 32 32 31 30 29 28 27 27 26 25 24 25 25 25 25 25 25 25 25 24 24 25 24 24 25 25 25 26 27 28 29 30 31 31 32 33 33 33 33 32 32 32 33 32 32
25 27 29 28 29 30 32 35 37 36 35 34 34 34 34 33 34 34 35 35 34 33 33 32 31 30 30 27 26 27 28 29 29 28 28 28 28 27 27 28 28 28 28 28 28 28 28 29 30 30 31 32 33 34 35 35 35 35 34 34 34 34 34
28 29 30 32 33 32 31 33 36 37 37 37 37 36 37 37 37 36 36 36 37 37 37 37 36 34 32 30 28 28 29 30 30 31 31 31 31 31 31 30 30 30 30 30 31 31 31 31 32 32 32 33 34 35 36 36 37 37 37 36 36 36 36
29 30 31 32 33 32 31 32 34 36 37 39 40 39 40 41 39 38 39 39 38 38 37 37 35 32 30 30 29 29 29 30 31 32 33 34 34 34 34 34 34 33 32 32 33 34 34 34 34 34 35 35 36 36 37 37 37 38 38 38 39 38 38
31 32 33 34 34 34 34 34 34 35 37 39 41 42 42 43 42 41 42 42 38 35 33 32 31 29 27 28 28 29 29 30 32 33 34 36 36 37 37 37 37 36 35 34 34 35 36 36 37 37 37 37 38 38 38 38 38 39 39 40 40 40 41
34 34 36 37 38 38 38 38 37 36 37 39 41 43 44 44 44 43 44 43 39 35 35 34 31 29 28 28 29 29 30 31 33 35 36 37 38 40 40 40 40 40 38 37 36 37 37 37 38 38 38 39 39 39 40 40 40 40 41 42 42 42 43
37 38 39 40 40 40 40 40 39 38 38 38 39 42 42 41 41 42 43 43 41 39 38 37 35 34 33 32 32 31 32 34 35 36 37 38 39 41 42 42 42 42 41 41 40 40 40 40 40 39 39 40 41 41 42 42 43 43 43 44 44 44 45
38 40 40 41 41 41 41 41 41 40 40 40 40 41 40 39 39 39 40 40 40 39 38 37 38 38 37 35 34 35 36 36 37 38 39 39 40 42 43 44 44 44 44 43 44 44 43 43 42 42 41 42 42 43 43 44 45 45 45 46 46 46 46
37 38 39 39 40 40 40 41 41 41 41 42 43 42 42 41 40 39 38 38 39 40 40 39 40 39 38 37 36 37 38 39 39 40 40 40 42 43 44 43 43 43 44 45 46 46 45 44 43 43 43 44 44 44 44 45 45 45 46 47 48 48 48
35 36 37 37 38 38 39 39 39 39 40 41 42 42 43 43 42 41 39 39 40 41 42 42 42 40 39 38 38 39 40 40 40 40 40 41 42 43 42 42 41 42 43 45 47 47 46 45 44 44 44 44 44 45 45 45 46 46 46 47 48 49 49
35 35 36 36 37 38 38 39 39 39 40 40 41 41 41 41 42 41 41 41 42 42 42 42 41 40 39 39 39 40 41 40 40 40 40 41 42 42 42 41 42 43 45 47 48 47 45 44 44 44 44 44 45 45 45 45 45 45 46 47 49 50 50
35 36 36 37 37 38 39 40 40 41 41 42 42 42 42 42 42 41 40 41 42 41 41 40 40 40 41 41 40 40 40 38 37 38 39 40 41 42 42 42 42 45 47 48 48 47 46 46 46 46 46 46 46 46 46 46 46 46 46 48 49 50 50
36 37 37 37 38 38 39 40 41 42 42 42 42 43 43 42 42 41 41 41 41 39 38 38 39 40 41 41 40 40 39 38 38 38 38 39 40 41 42 42 44 47 49 49 48 48 48 48 49 49 49 49 49 49 49 48 48 49 49 49 48 49 49
38 38 38 38 38 38 38 39 41 42 43 43 42 42 41 40 40 40 39 39 39 38 37 37 39 40 40 40 40 39 39 40 40 39 40 41 43 43 43 45 48 50 50 48 47 48 49 50 51 52 52 52 52 52 51 51 51 52 52 51 50 49 49
39 39 39 39 39 38 38 38 38 40 41 41 41 40 39 37 37 37 36 36 35 35 35 36 38 39 39 40 39 39 40 42 42 43 44 45 46 45 45 47 51 53 51 49 48 48 49 50 52 53 54 55 54 54 53 53 54 54 53 52 51 51 50
41 41 41 40 39 37 36 36 36 36 37 38 39 37 35 34 34 34 34 34 34 35 36 37 38 39 39 40 40 40 41 43 44 46 47 47 47 47 47 48 52 53 52 51 50 50 51 52 53 55 56 56 55 55 55 55 55 55 55 54 53 53 52
43 43 43 41 39 37 36 35 34 34 34 35 35 34 33 33 32 32 33 34 35 36 37 38 39 39 40 40 40 41 42 43 44 45 46 47 47 48 48 49 51 51 51 51 51 51 52 53 54 55 55 55 55 55 56 56 56 55 55 55 55 55 54
43 43 42 40 38 36 35 34 34 34 34 34 33 32 32 32 31 32 34 34 34 34 36 39 41 41 40 40 40 40 41 41 42 44 46 47 48 49 49 49 49 50 50 51 52 52 53 53 54 54 54 55 55 55 56 56 56 56 56 55 56 56 55
41 41 40 38 37 36 35 35 35 35 34 33 32 31 31 31 32 32 32 31 32 34 37 40 40 39 39 38 38 39 39 40 42 44 46 46 47 46 47 47 47 48 49 51 52 53 53 54 54 55 55 55 55 56 57 57 57 57 57 56 56 55 54
Wind_Direction
358 21 214 202 193 232 299 318 310 299 290 282 278 275 272 272 270 263 258 255 255 256 259 261 259 252 246 246 249 251 250 249 250 251 249 245 245 245 245 248 254 254 254 263 270 274 275 270 263 255 247 242 231 221 224 226 225 228 228 230 234 236 239
335 345 318 272 293 339 347 348 345 336 320 303 289 279 269 263 258 255 255 258 259 260 263 266 265 257 247 245 249 252 253 252 250 251 252 250 249 250 250 251 255 255 252 252 255 258 265 271 273 272 268 262 248 234 233 234 234 234 233 234 236 238 240
303 315 322 311 325 359 23 24 22 21 15 2 336 307 280 265 255 248 245 248 253 257 261 264 263 257 249 245 247 252 256 255 252 250 249 250 250 250 251 251 251 251 250 250 251 250 251 254 257 262 266 266 265 263 257 252 249 246 245 246 243 242 245
296 303 308 307 307 326 14 34 39 43 43 39 27 11 330 285 256 245 240 240 245 250 254 258 259 255 251 247 250 254 256 255 252 250 248 247 248 248 249 248 247 246 247 248 250 250 251 251 251 253 255 257 260 266 268 270 271 269 266 263 255 250 251
297 298 303 308 307 308 339 24 42 46 46 46 45 42 34 17 298 244 235 235 239 245 251 255 258 258 255 252 253 255 258 259 254 251 252 250 249 250 250 250 247 244 244 245 248 249 250 251 253 254 255 254 253 254 257 262 267 270 271 271 269 265 265
298 297 299 304 306 307 314 348 29 38 40 42 41 43 44 38 25 359 247 234 236 242 249 254 258 260 260 258 257 259 260 260 258 255 254 252 251 252 252 253 253 250 246 244 245 248 249 250 251 253 255 255 254 253 251 251 253 256 259 261 263 262 263
291 295 296 296 301 303 299 306 342 12 25 28 28 29 32 31 26 20 10 341 271 256 256 258 262 263 264 263 259 260 261 261 260 257 254 253 251 250 251 251 251 251 251 250 249 250 250 250 251 252 253 253 253 252 251 251 252 253 255 256 255 254 254
282 288 290 293 295 294 291 293 303 320 346 7 13 12 13 19 20 17 14 7 356 333 301 287 285 283 282 280 273 267 265 266 265 263 260 259 258 257 256 255 255 255 255 254 254 255 255 255 255 256 257 257 256 255 253 251 250 251 252 253 255 256 255
272 279 283 288 288 284 284 288 293 297 305 320 340 349 351 1 9 11 13 10 5 0 347 330 320 315 313 313 312 305 292 283 279 275 272 269 267 267 265 264 263 263 263 262 262 262 262 262 262 262 262 262 262 260 259 257 255 254 252 250 252 255 255
261 272 279 279 279 279 279 282 285 287 290 293 299 314 322 333 348 357 4 7 7 6 360 349 338 330 328 328 327 326 321 313 304 296 290 284 280 277 275 273 271 270 269 267 266 266 266 267 267 267 267 267 266 265 262 259 257 258 258 255 254 255 255
251 262 270 271 271 274 276 277 277 276 279 283 285 290 296 305 317 329 343 353 357 1 2 358 353 345 339 334 330 329 326 323 320 314 308 302 296 291 287 284 282 281 278 276 273 271 270 270 270 271 272 272 272 272 271 266 261 261 262 261 260 260 260
244 249 257 264 267 270 274 275 275 274 274 276 279 281 282 290 299 305 314 328 337 345 350 352 354 353 348 343 338 332 327 323 321 318 314 309 304 300 296 293 290 288 285 283 281 279 278 277 275 275 276 276 276 277 278 276 272 270 268 267 267 267 266
238 242 247 254 259 264 268 270 271 272 272 273 275 277 278 283 289 294 299 306 314 322 330 335 340 343 343 343 341 335 328 323 318 313 309 306 305 302 299 294 291 289 287 285 283 281 281 281 282 282 281 280 279 278 279 278 277 276 275 273 272 272 271
232 235 239 245 251 255 260 264 266 267 267 269 271 274 275 276 280 286 291 294 298 303 309 315 321 326 330 332 332 330 327 323 319 314 308 304 301 299 296 293 290 287 285 284 283 282 281 280 280 281 281 281 280 278 277 277 276 276 275 275 275 274 273
228 230 232 236 241 245 249 254 259 261 263 264 266 269 271 272 274 277 281 284 287 291 295 300 305 310 315 319 321 321 321 320 319 318 315 310 305 300 297 295 292 290 288 287 286 285 284 284 284 283 283 283 283 281 279 278 278 276 276 277 277 277 276
228 229 230 232 235 238 240 244 248 253 258 259 261 264 267 269 270 272 274 276 279 282 286 289 292 296 300 305 308 310 312 312 313 314 314 312 310 306 301 297 294 292 291 290 289 288 288 288 288 289 289 289 288 287 286 285 283 282 280 280 280 280 280
235 234 234 234 234 236 237 240 244 246 250 255 257 260 262 265 268 270 272 274 276 278 279 281 282 284 287 292 296 300 302 303 305 307 307 308 307 305 302 299 296 293 292 290 289 289 288 288 288 289 289 289 289 289 288 288 287 287 286 285 283 281 280
245 243 244 242 244 245 243 242 244 244 246 249 252 255 258 262 265 267 269 271 272 272 273 274 274 276 278 281 286 290 293 296 298 300 301 302 303 302 301 300 298 295 293 291 289 288 288 288 288 288 288 288 288 288 287 287 286 286 286 287 287 285 283
255 255 255 253 255 257 254 250 249 248 246 247 250 255 257 259 262 265 268 269 270 270 270 270 271 273 275 276 279 283 286 289 292 294 297 299 300 299 299 299 299 297 295 294 292 291 289 288 287 287 287 287 286 286 286 286 285 284 284 284 285 285 284
266 267 268 266 265 264 258 254 255 254 251 252 256 259 258 257 259 263 266 269 271 271 270 269 268 268 270 273 277 282 285 287 289 292 295 297 297 297 296 297 297 296 295 295 295 294 292 291 289 287 286 285 284 284 284 284 284 283 282 282 281 281 281
267 268 270 268 267 266 258 254 256 257 257 257 259 259 258 257 260 263 265 267 269 271 272 272 271 270 272 275 279 284 286 287 290 292 294 295 295 295 294 295 296 296 295 294 294 294 295 294 293 291 289 286 284 283 283 282 282 282 281 281 280 279 279
266 267 267 266 266 264 260 256 257 258 258 258 259 260 260 260 262 264 264 265 268 271 275 279 280 280 280 279 279 282 285 287 288 290 291 292 293 292 291 291 293 296 296 294 292 292 293 294 293 292 291 290 288 286 285 283 282 282 281 280 280 279 279
262 263 265 265 264 263 262 260 259 258 258 258 259 260 259 259 261 262 264 267 270 272 274 278 281 281 278 274 274 279 283 285 285 285 287 288 289 289 289 287 288 291 295 296 293 290 290 291 291 291 290 290 290 289 288 287 286 284 283 281 280 280 280
265 264 264 264 262 261 261 260 259 258 257 257 258 258 258 258 259 262 266 270 273 273 273 276 278 277 274 272 274 278 280 281 281 281 282 284 285 286 286 284 283 285 290 295 294 291 288 287 286 287 287 288 288 289 289 289 289 288 286 284 282 281 281
270 269 267 264 262 261 261 261 260 259 259 258 258 259 260 261 261 263 265 269 271 272 273 274 275 276 276 275 277 278 278 278 278 278 278 280 280 281 283 283 281 280 284 291 295 293 290 286 283 282 282 284 286 287 288 289 290 289 288 287 285 284 283
270 269 267 266 265 264 263 263 262 262 263 263 262 263 264 265 265 265 266 267 269 271 272 272 272 274 276 277 278 278 277 276 275 274 275 276 277 279 280 282 281 280 282 287 292 292 291 288 285 281 279 279 281 283 284 286 288 288 288 287 286 285 285
268 267 267 266 266 267 266 265 264 264 264 264 265 266 267 267 268 268 268 268 268 269 271 272 272 274 276 277 278 276 275 273 272 272 274 276 277 279 281 282 282 282 283 286 289 290 290 289 287 285 282 281 281 281 281 282 284 285 286 285 285 285 285
269 268 267 267 267 267 267 267 267 266 265 264 264 265 266 267 267 268 269 269 269 269 270 271 272 273 274 274 274 273 272 271 271 273 275 277 279 281 282 283 284 285 285 286 288 288 288 289 288 288 286 285 284 284 284 284 285 285 285 284 283 283 282
270 269 269 268 268 268 268 268 268 267 267 266 266 265 265 265 265 266 266 266 267 268 269 269 270 271 270 270 271 271 270 270 271 273 276 278 280 282 283 285 286 286 287 288 288 288 289 289 289 289 289 288 287 286 286 287 287 287 286 285 283 282 282
269 269 269 269 269 268 267 267 267 267 267 267 267 267 267 266 266 267 267 266 267 267 268 268 269 269 270 270 271 271 272 272 273 275 276 278 281 283 284 284 285 287 289 290 290 291 291 292 292 291 290 290 289 288 288 289 288 287 285 283 282 281 281
268 269 269 270 270 269 268 267 266 266 266 266 267 266 267 267 268 268 268 268 269 268 268 268 268 268 270 271 272 274 274 276 278 277 277 279 283 284 284 284 286 289 290 290 292 294 294 294 293 292 292 292 291 291 291 291 289 287 285 283 281 281 280
268 268 269 269 270 270 270 269 267 266 265 265 266 266 266 266 267 267 268 268 268 267 266 265 265 266 268 271 273 275 275 276 279 280 280 282 285 286 286 285 287 290 290 289 292 293 293 292 293 293 293 293 292 292 292 291 289 287 286 285 284 283 282
269 268 268 269 270 272 272 272 270 268 266 265 265 266 266 266 265 265 266 265 263 261 258 259 262 265 268 270 271 272 274 275 277 279 281 282 284 285 285 285 288 290 290 290 292 291 290 290 291 292 292 292 292 292 291 290 289 288 288 287 286 285 284
270 269 268 269 270 272 273 272 270 268 266 264 263 264 264 263 262 260 260 259 257 254 252 256 260 263 265 266 266 269 272 275 277 280 281 281 283 284 284 286 288 290 290 291 291 290 289 290 290 290 290 290 291 290 290 289 289 288 288 288 287 287 286
271 269 268 268 269 270 271 269 266 264 262 260 259 260 260 258 255 253 254 254 254 253 252 254 257 259 261 263 265 269 273 276 278 280 281 282 284 285 286 287 287 287 288 289 289 289 288 288 288 288 288 288 288 288 288 288 287 287 287 287 287 287 286
271 268 266 265 266 267 267 264 262 260 259 256 255 254 254 252 249 247 249 253 256 255 254 253 254 255 258 262 266 270 273 276 278 281 282 283 285 285 286 285 285 286 287 288 288 288 288 288 288 287 287 287 287 287 286 286 286 286 286 286 285 285 285
268 266 263 262 263 264 263 261 260 260 257 253 251 249 248 247 245 243 246 251 254 252 250 248 249 252 256 261 265 270 274 276 278 280 282 283 284 285 285 285 285 287 288 289 289 290 290 289 289 289 288 288 287 287 286 286 286 285 285 284 284 284 283
Height
3127 3127 3127 3127 3127 3127 3126 3126 3126 3126 3126 3126 3126 3126 3126 3126 3126 3126 3126 3126 3126 3126 3126 3127 3127 3128 3128 3128 3129 3129 3129 3130 3131 3131 3132 3132 3133 3134 3135 3135 3135 3135 3136 3137 3138 3139 3140 3140 3141 3140 3140 3142 3144 3145 3145 3145 3146 3147 3148 3149 3150 3150 3151
3127 3127 3126 3126 3126 3126 3126 3126 3125 3125 3125 3125 3125 3125 3125 3125 3126 3126 3126 3126 3126 3126 3125 3126 3126 3127 3127 3127 3127 3127 3128 3128 3129 3129 3130 3130 3131 3132 3133 3133 3134 3134 3135 3136 3137 3138 3138 3139 3139 3139 3139 3140 3141 3141 3142 3143 3144 3145 3146 3147 3147 3148 3148
3127 3127 3127 3126 3126 3126 3125 3125 3125 3124 3124 3124 3124 3124 3124 3124 3125 3125 3125 3125 3125 3125 3125 3125 3125 3126 3126 3126 3126 3126 3127 3127 3127 3128 3128 3129 3129 3130 3130 3131 3132 3132 3133 3134 3134 3136 3137 3137 3137 3137 3138 3138 3138 3139 3140 3141 3142 3142 3143 3144 3145 3145 3145
3127 3127 3126 3126 3126 3125 3125 3125 3124 3124 3124 3123 3123 3123 3123 3123 3123 3124 3124 3124 3124 3124 3124 3124 3124 3125 3125 3125 3125 3125 3126 3126 3126 3126 3127 3127 3127 3128 3128 3129 3129 3130 3131 3131 3132 3133 3134 3134 3135 3135 3136 3137 3137 3137 3138 3138 3139 3139 3140 3141 3142 3142 3143
3126 3126 3126 3126 3125 3125 3125 3124 3124 3124 3123 3123 3123 3123 3123 3122 3123 3123 3123 3123 3123 3123 3123 3123 3123 3124 3124 3124 3125 3125 3125 3125 3125 3125 3126 3126 3126 3126 3126 3127 3127 3128 3129 3129 3130 3130 3131 3131 3132 3132 3133 3134 3134 3135 3136 3136 3137 3137 3137 3138 3139 3139 3140
3124 3125 3125 3125 3125 3124 3124 3124 3123 3123 3123 3123 3123 3122 3122 3122 3122 3122 3122 3122 3122 3123 3123 3123 3123 3123 3123 3123 3124 3124 3124 3124 3124 3125 3125 3125 3125 3126 3126 3126 3126 3126 3127 3127 3128 3128 3128 3129 3129 3130 3130 3131 3131 3132 3133 3133 3134 3134 3135 3136 3136 3137 3138
3124 3123 3124 3124 3124 3124 3123 3123 3123 3123 3122 3122 3122 3122 3122 3122 3122 3122 3122 3122 3122 3122 3122 3122 3122 3122 3122 3123 3123 3123 3123 3123 3124 3124 3124 3125 3125 3125 3125 3125 3125 3125 3126 3126 3126 3126 3127 3127 3127 3127 3128 3128 3129 3129 3130 3131 3131 3132 3132 3132 3133 3133 3134
3123 3123 3122 3123 3123 3123 3123 3123 3122 3122 3122 3122 3122 3121 3121 3121 3121 3121 3121 3121 3121 3121 3121 3121 3121 3121 3121 3121 3122 3122 3122 3122 3122 3123 3123 3123 3124 3124 3124 3124 3124 3125 3125 3125 3125 3125 3125 3125 3125 3125 3126 3126 3127 3127 3128 3129 3129 3129 3130 3130 3130 3130 3130
3121 3122 3122 3122 3122 3122 3122 3122 3122 3121 3121 3121 3121 3121 3121 3121 3121 3121 3121 3121 3120 3120 3120 3120 3120 3120 3120 3120 3121 3121 3121 3121 3121 3121 3121 3122 3122 3122 3122 3122 3123 3123 3123 3124 3124 3124 3124 3124 3124 3124 3124 3124 3125 3125 3126 3127 3127 3127 3127 3128 3127 3127 3127
3120 3121 3121 3121 3120 3120 3121 3121 3121 3121 3120 3120 3120 3120 3120 3120 3120 3120 3120 3120 3120 3120 3120 3120 3120 3119 3119 3119 3120 3120 3120 3120 3120 3120 3120 3120 3120 3120 3120 3120 3121 3121 3121 3122 3122 3122 3122 3122 3122 3122 3122 3122 3123 3123 3124 3124 3125 3125 3125 3125 3125 3125 3125
3119 3119 3119 3119 3119 3119 3119 3119 3119 3119 3119 3119 3119 3119 3119 3119 3119 3119 3119 3119 3119 3119 3119 3119 3119 3119 3119 3119 3118 3118 3118 3118 3119 3119 3118 3118 3118 3118 3118 3118 3119 3119 3119 3119 3119 3120 3120 3120 3120 3120 3120 3120 3120 3121 3121 3122 3123 3123 3122 3122 3122 3122 3122
3117 3118 3118 3118 3118 3118 3118 3118 3118 3118 3118 3117 3117 3118 3118 3118 3118 3118 3118 3119 3119 3119 3119 3118 3118 3118 3118 3118 3118 3118 3117 3117 3117 3117 3117 3117 3116 3116 3117 3117 3117 3117 3116 3116 3117 3117 3117 3118 3118 3118 3119 3119 3119 3119 3119 3119 3119 3120 3120 3120 3120 3119 3119
3115 3116 3116 3116 3116 3116 3116 3116 3116 3116 3116 3116 3116 3116 3116 3116 3117 3117 3117 3117 3118 3118 3118 3118 3118 3118 3118 3118 3117 3117 3116 3116 3116 3115 3115 3115 3115 3115 3115 3115 3115 3115 3115 3115 3114 3114 3115 3115 3115 3116 3116 3116 3117 3117 3117 3117 3116 3116 3117 3117 3116 3117 3116
3112 3113 3113 3114 3114 3114 3115 3115 3114 3114 3114 3114 3114 3114 3114 3115 3115 3115 3115 3116 3116 3117 3117 3117 3117 3117 3117 3117 3116 3116 3115 3115 3114 3114 3114 3114 3113 3113 3113 3113 3113 3113 3113 3113 3113 3113 3113 3113 3113 3113 3113 3114 3114 3114 3115 3115 3114 3114 3114 3114 3113 3113 3113
3108 3109 3110 3110 3111 3112 3112 3112 3112 3112 3112 3112 3112 3112 3112 3112 3113 3113 3113 3114 3114 3115 3115 3115 3115 3116 3116 3116 3115 3115 3114 3114 3113 3113 3113 3112 3112 3112 3111 3111 3111 3110 3110 3110 3110 3110 3110 3110 3110 3110 3110 3110 3110 3111 3111 3111 3111 3111 3110 3111 3110 3110 3110
3105 3105 3106 3106 3107 3108 3108 3109 3109 3110 3110 3109 3109 3109 3109 3109 3110 3111 3111 3112 3112 3112 3113 3113 3113 3113 3113 3114 3113 3113 3113 3112 3112 3112 3112 3111 3111 3110 3110 3109 3109 3108 3108 3108 3108 3107 3107 3107 3107 3107 3107 3107 3106 3107 3107 3107 3107 3107 3106 3107 3107 3107 3106
3102 3102 3102 3103 3103 3104 3105 3105 3106 3106 3107 3107 3107 3107 3107 3107 3107 3108 3108 3109 3110 3110 3110 3111 3111 3111 3111 3111 3111 3111 3111 3111 3110 3110 3110 3110 3109 3109 3108 3108 3107 3107 3106 3106 3105 3105 3104 3104 3104 3104 3104 3103 3103 3103 3103 3103 3103 3102 3102 3102 3103 3103 3103
3099 3100 3100 3100 3101 3102 3102 3102 3102 3103 3103 3104 3104 3104 3104 3104 3104 3104 3105 3106 3106 3107 3107 3108 3108 3108 3108 3108 3108 3108 3108 3108 3108 3108 3107 3107 3107 3107 3106 3106 3106 3105 3104 3104 3103 3103 3102 3102 3101 3101 3100 3100 3099 3099 3099 3099 3099 3099 3098 3097 3098 3098 3098
3095 3096 3097 3098 3099 3100 3099 3099 3099 3100 3100 3100 3100 3100 3101 3101 3101 3101 3101 3102 3102 3103 3104 3104 3105 3105 3105 3106 3106 3105 3105 3105 3105 3105 3104 3104 3104 3104 3104 3103 3103 3102 3102 3101 3101 3100 3100 3099 3098 3098 3097 3096 3096 3095 3095 3095 3095 3095 3095 3094 3094 3093 3093
3093 3093 3094 3094 3095 3096 3096 3096 3096 3096 3097 3097 3096 3097 3098 3098 3098 3099 3098 3098 3099 3099 3100 3100 3101 3101 3102 3103 3103 3103 3102 3102 3101 3101 3101 3101 3101 3100 3100 3100 3099 3099 3098 3098 3098 3097 3097 3096 3095 3095 3094 3093 3092 3091 3091 3091 3091 3091 3091 3091 3090 3090 3089
3089 3089 3090 3090 3091 3092 3092 3092 3092 3093 3093 3093 3093 3094 3095 3095 3095 3096 3095 3095 3095 3095 3096 3096 3097 3098 3099 3100 3100 3099 3098 3098 3098 3097 3097 3097 3097 3096 3096 3096 3095 3095 3095 3094 3094 3093 3093 3092 3092 3091 3090 3089 3088 3087 3087 3086 3086 3086 3086 3086 3086 3086 3086
3085 3086 3086 3087 3087 3088 3088 3089 3089 3089 3089 3090 3090 3090 3091 3091 3092 3092 3091 3090 3091 3092 3092 3092 3093 3095 3096 3096 3095 3095 3094 3094 3094 3093 3093 3092 3092 3092 3092 3091 3091 3091 3091 3090 3089 3089 3088 3087 3087 3086 3086 3085 3083 3083 3082 3082 3081 3081 3081 3080 3080 3080 3080
3082 3082 3083 3083 3083 3084 3084 3084 3084 3085 3085 3085 3085 3085 3086 3087 3088 3088 3087 3086 3087 3088 3088 3088 3089 3090 3090 3090 3090 3090 3090 3090 3089 3089 3089 3088 3088 3087 3087 3087 3086 3086 3086 3086 3085 3084 3084 3083 3082 3081 3080 3080 3078 3077 3077 3076 3076 3076 3075 3075 3075 3075 3074
3077 3078 3078 3079 3079 3079 3079 3079 3080 3080 3080 3080 3080 3080 3081 3082 3083 3083 3082 3082 3083 3083 3083 3084 3085 3085 3085 3085 3085 3085 3086 3085 3085 3085 3084 3084 3083 3082 3082 3082 3081 3081 3081 3081 3080 3079 3079 3078 3077 3076 3075 3074 3073 3072 3071 3071 3070 3070 3069 3069 3069 3069 3068
3072 3072 3073 3073 3074 3074 3074 3075 3075 3076 3076 3076 3076 3075 3076 3077 3078 3078 3078 3078 3078 3079 3079 3080 3080 3079 3079 3079 3080 3080 3081 3080 3080 3080 3079 3079 3078 3077 3076 3076 3076 3075 3075 3075 3075 3074 3073 3072 3071 3070 3070 3069 3068 3067 3066 3065 3064 3064 3063 3062 3062 3062 3062
3067 3067 3068 3068 3068 3069 3069 3070 3070 3071 3071 3071 3071 3071 3071 3072 3073 3074 3074 3074 3074 3074 3074 3075 3075 3074 3074 3075 3075 3075 3075 3075 3075 3074 3073 3073 3072 3072 3071 3070 3070 3069 3069 3069 3069 3068 3067 3066 3065 3064 3063 3063 3063 3062 3061 3060 3059 3058 3057 3056 3055 3055 3055
3062 3062 3063 3063 3063 3064 3064 3064 3065 3066 3066 3066 3066 3067 3067 3067 3068 3069 3069 3069 3069 3069 3070 3069 3069 3069 3069 3070 3070 3070 3069 3069 3069 3068 3068 3067 3067 3066 3065 3065 3064 3064 3064 3063 3063 3062 3061 3060 3058 3057 3056 3056 3056 3055 3055 3054 3053 3052 3052 3050 3049 3049 3049
3057 3058 3058 3059 3059 3059 3059 3059 3060 3060 3061 3061 3061 3061 3062 3062 3062 3063 3064 3064 3063 3064 3064 3064 3064 3064 3065 3065 3065 3064 3063 3063 3063 3063 3063 3062 3062 3061 3060 3060 3059 3058 3058 3057 3057 3056 3055 3053 3052 3051 3050 3049 3049 3048 3047 3047 3046 3046 3045 3044 3043 3042 3042
3053 3053 3053 3054 3054 3054 3054 3055 3055 3055 3055 3055 3055 3056 3056 3057 3057 3058 3058 3058 3057 3058 3058 3058 3059 3059 3059 3059 3059 3058 3058 3058 3058 3058 3058 3057 3056 3056 3055 3054 3054 3053 3052 3051 3050 3049 3048 3047 3045 3044 3043 3043 3042 3042 3041 3040 3040 3040 3039 3037 3036 3035 3035
3049 3048 3048 3048 3049 3049 3049 3050 3050 3050 3050 3050 3050 3050 3051 3051 3052 3052 3052 3052 3052 3053 3052 3053 3053 3054 3053 3053 3053 3053 3053 3053 3053 3053 3053 3052 3051 3050 3049 3049 3049 3048 3046 3045 3043 3042 3041 3039 3038 3037 3036 3036 3035 3034 3034 3034 3034 3033 3032 3031 3030 3029 3028
3044 3044 3044 3043 3043 3044 3044 3044 3044 3044 3044 3045 3045 3045 3045 3045 3046 3046 3046 3046 3047 3047 3047 3047 3048 3048 3047 3048 3048 3048 3049 3049 3049 3048 3048 3047 3045 3045 3043 3043 3043 3042 3041 3039 3038 3036 3034 3032 3030 3029 3028 3028 3027 3027 3027 3026 3026 3025 3023 3023 3023 3023 3022
3039 3039 3038 3038 3038 3038 3038 3038 3038 3038 3039 3039 3039 3039 3040 3040 3040 3041 3041 3041 3042 3042 3042 3042 3042 3042 3043 3043 3044 3044 3045 3045 3044 3043 3042 3041 3040 3039 3038 3037 3036 3036 3035 3034 3033 3031 3028 3026 3024 3022 3021 3020 3019 3019 3019 3018 3017 3015 3014 3014 3015 3014 3014
3034 3033 3033 3033 3033 3033 3033 3033 3033 3033 3033 3033 3033 3034 3034 3035 3035 3035 3036 3037 3037 3037 3037 3037 3037 3038 3038 3039 3040 3040 3041 3040 3039 3039 3038 3036 3035 3034 3033 3032 3031 3029 3027 3027 3026 3025 3023 3020 3018 3016 3014 3012 3011 3011 3010 3008 3007 3006 3005 3005 3005 3005 3005
3027 3027 3027 3027 3027 3027 3028 3027 3027 3027 3028 3028 3028 3028 3029 3030 3030 3031 3031 3032 3032 3031 3032 3032 3033 3034 3034 3035 3036 3036 3036 3035 3035 3034 3033 3032 3031 3029 3028 3027 3025 3023 3021 3020 3019 3017 3016 3014 3012 3010 3008 3006 3004 3003 3001 3000 2998 2997 2996 2996 2996 2996 2995
3021 3021 3021 3021 3021 3021 3022 3022 3022 3022 3022 3022 3023 3023 3024 3025 3025 3025 3026 3026 3026 3026 3027 3028 3029 3029 3030 3031 3032 3032 3031 3031 3030 3029 3028 3026 3025 3024 3023 3021 3019 3018 3016 3014 3012 3010 3009 3007 3005 3003 3001 2999 2997 2995 2993 2992 2990 2989 2988 2988 2987 2986 2986
3014 3013 3014 3014 3014 3015 3016 3016 3016 3016 3017 3017 3018 3018 3019 3020 3020 3020 3020 3021 3022 3023 3024 3024 3025 3026 3027 3027 3028 3027 3026 3026 3025 3024 3022 3021 3020 3018 3017 3016 3014 3011 3010 3008 3005 3003 3001 2999 2997 2995 2993 2992 2990 2988 2986 2984 2982 2981 2980 2980 2978 2978 2977
3007 3007 3007 3007 3008 3009 3010 3010 3010 3011 3012 3012 3013 3013 3014 3015 3015 3016 3016 3018 3019 3020 3021 3022 3022 3023 3023 3023 3023 3022 3022 3021 3020 3019 3018 3016 3014 3013 3011 3009 3007 3005 3003 3000 2998 2995 2993 2991 2989 2987 2985 2983 2981 2979 2977 2976 2974 2973 2972 2971 2970 2969 2969